Retour au catalogue

CZ-6A DEB

ActifSSO
NORAD 56638·DEBRIS·🇨🇳 China

Lancé Nov 11, 2022 depuis Taiyuan Satellite Launch Center

Loading…

Prochains Passages (prochaines 24 heures)

TLE

VieillissantSource: Space-Track

Époque: Sep 10, 2026, 07:38 UTC

1 56638U 22151AFN 26253.31805641  .00000367  00000-0  19658-3 0  9993
2 56638  98.8227 273.1274 0050851 117.0174 243.6205 14.18454647174864

Suivez CZ-6A DEB en temps réel avec AllMySat

Download on the App Store